Location: Unspecified
(0.0000°N, 0.0000°E)
Time: 13:21:35
(UTC+00:00)

Envisat - Pass Details

Date: 09 April 2021
Orbit: 764 x 766 km, 98.1° (Epoch: 16 April)

Event Time Altitude Azimuth Distance (km) Brightness Sun altitude
Rises 05:34:55 0° 359° (N) 3,212 6.3 -6.6°
Reaches altitude 10° 05:37:19 10° 353° (N) 2,290 5.5 -6.0°
Maximum altitude 05:42:04 43° 282° (WNW) 1,070 3.4 -4.8°
Drops below altitude 10° 05:46:51 10° 211° (SSW) 2,300 5.1 -3.7°
Sets 05:49:16 0° 205° (SSW) 3,229 5.9 -3.1°
